BANGABANDHUSAT-1

Last updated on Sept. 30, 2020, 5:50 a.m. UTC

1 43463U 18044A   20273.87927498 -.00000380  00000-0  00000-0 0  9997
2 43463   0.0026 180.7492 0002160  13.1086 250.8687  1.00270216  8787
UTC
Height (km)
Latitude
Longitude
Inclination
Orbital Period
UTC large
Height (km)
Speed (km/s)
/
Latitude / Longitude
Inclination (degrees)
Orbital Period (minutes)
Azimuth
Elevation
Range (km)
Doppler Factor
iOS Compass Heading
iOS Angle

Next 30 passes for location: Hong Kong

Rise time Rise Azimuth (degrees) Set time Set Azimuth (degrees) Duration Max altitude (degrees)

No matching passes for this satellites